Location: *
(45.0500°N, 12.0500°E)
Time: 17:52:54
(UTC+00:00)

Terra - Pass Details

Date: 09 April 2020
Orbit: 701 x 703 km, 98.2° (Epoch: 29 May)

Event Time Altitude Azimuth Distance (km) Brightness Sun altitude
Exits shadow 22:08:19 21° 299° (WNW) 1,581 4.0 -35.0°
Drops below altitude 10° 22:10:30 10° 322° (NW) 2,180 5.1 -35.1°
Sets 22:13:07 0° 335° (NNW) 3,104 6.2 -35.2°
